Location: Newark
(40.7060°N, 73.9980°W)
Time: 05:12:07
(UTC+00:00)

N. Korean satellite - Pass Details

Date: 25 November 2019
Orbit: 455 x 506 km, 97.2° (Epoch: 12 December)

Event Time Altitude Azimuth Distance (km) Brightness Sun altitude
Rises 09:52:51 0° 30° (NNE) 2,594 10.5 -22.6°
Reaches altitude 10° 09:55:34 10° 52° (NE) 1,695 9.9 -22.1°
Maximum altitude 09:57:57 16° 93° (E) 1,329 9.7 -21.6°
Drops below altitude 10° 10:00:18 10° 134° (SE) 1,667 10.0 -21.2°
Sets 10:02:56 0° 156° (SSE) 2,529 10.7 -20.7°
